Regional Weather Roundup
Issued by NWS

Home | Current Version | Previous Version | Graphics & Text | Print | Product List | Glossary On
Versions: 1 2 3 4 5 6 7 8 9 10 11 12 13 14 15 16 17 18 19 20 21 22 23 24 25 26 27 28 29 30 31 32 33 34 35 36 37 38 39 40 41 42 43 44 45 46 47 48 49 50
000
ASUS43 KFSD 010602
RWRSD

WEATHER ROUNDUP FOR SOUTH DAKOTA
NATIONAL WEATHER SERVICE SIOUX FALLS SD
100 AM CDT FRI AUG 01 2014

NOTE: "FAIR" INDICATES FEW OR NO CLOUDS BELOW 12,000 FEET WITH NO
SIGNIFICANT WEATHER AND/OR OBSTRUCTIONS TO VISIBILITY.


SDZ001>005-009-010-012>017-010700-
NORTHWEST AND NORTH CENTRAL SOUTH DAKOTA

CITY           SKY/WX    TMP DP  RH WIND       PRES   REMARKS
BUFFALO          N/A     64  48  56 S8        30.02S
FAITH            N/A     64  55  72 SE10      30.08R
MOBRIDGE       PTCLDY    63  58  83 SE6       30.03S
$$

SDZ012>016-024>037-041>051-057-063-072>074-010700-
SOUTHWEST AND SOUTH CENTRAL SOUTH DAKOTA

CITY           SKY/WX    TMP DP  RH WIND       PRES   REMARKS
RAPID CTY ARPT PTCLDY    60  51  72 NW7       30.12F
PIERRE         CLEAR     64  59  83 SE6       30.05S
CUSTER         CLEAR     52  48  86 NW3       30.28S
ELLSWORTH AFB  CLEAR     66  51  58 W7        30.12S
PHILIP         CLEAR     66  52  60 VRB3      30.07S
PINE RIDGE     PTCLDY    55  52  89 S5        30.14F
WINNER         FAIR      67  58  72 SE6       30.09R
$$

SDZ004>011-016>023-039-040-010700-
NORTHEAST SOUTH DAKOTA

CITY           SKY/WX    TMP DP  RH WIND       PRES   REMARKS
ABERDEEN       CLEAR     57  55  93 S3        30.05S
WATERTOWN      CLEAR     61  55  81 CALM      30.08R
SISSETON         N/A     61  59  93 CALM      30.04R
$$

SDZ017-020-022-023-036>040-048>070-010700-
SOUTHEAST SOUTH DAKOTA

CITY           SKY/WX    TMP DP  RH WIND       PRES   REMARKS
SIOUX FALLS    CLEAR     61  59  93 SW3       30.08R
HURON          CLEAR     61  57  87 CALM      30.06R
CHAMBERLAIN    CLEAR     61  56  84 CALM      30.08R
MITCHELL       CLEAR     67  60  78 S5        30.07R
YANKTON        CLEAR     64  61  88 S3        30.07F
$$

ABBREVIATIONS USED IN REMARKS
   TC - TEMPERATURE IN CELSIUS
  WCI - WIND CHILL INDEX
   HX - HEAT INDEX
  VSB - VISIBILITY



USA.gov is the U.S. government's official web portal to all federal, state and local government web resources and services.